Hartford, CT

9:05 PM EDT on April 25, 2017 (GMT -0400)
Hartford-brainard

Weather History for KHFD - December, 2012

Change the Weather History Date:

Thursday, December 6, 2012

  Actual Average Record
Temperature  
Mean Temperature 32 °F -  
Max Temperature 39 °F 41 °F 71 °F (2001)
Min Temperature 25 °F 25 °F 10 °F (1949)
Degree Days  
Heating Degree Days 33    
Moisture  
Dew Point 16 °F    
Average Humidity 54    
Maximum Humidity 81    
Minimum Humidity 36    
Precipitation  
Precipitation 0.00 in - - ()
Sea Level Pressure  
Sea Level Pressure 30.30 in    
Wind  
Wind Speed 7 mph (NNW)    
Max Wind Speed 14 mph    
Max Gust Speed 24 mph    
Visibility 10 miles    
Events      
Averages and records for this station are not official NWS values.
T = Trace of Precipitation, MM = Missing Value Source: NWS Daily Summary

Daily Weather History Graph

Daily Weather History Graph

Search for Another Location

Airport or City:

Trip Planner

Search our weather history database for the weather conditions in past years. The results will help you decide how hot, cold, wet, or windy it might be!

Date:

Astronomy

Dec. 06, 2012 Rise Set
Actual Time 7:03 AM EST 4:19 PM EST
Civil Twilight 6:32 AM EST 4:51 PM EST
Nautical Twilight 5:57 AM EST 5:25 PM EST
Astronomical Twilight 5:23 AM EST 5:59 PM EST
Moon No Moon Rise 11:50 AM EST (12/6)
Length of Visible Light 10h 18m
Length of Day
9h 16m
Waning Gibbous, 49% of the Moon is Illuminated
Dec 6
Waning Gibbous
Dec 13
New
Dec 20
First Quarter
Dec 28
Full
Jan 4
Last Quarter

Hourly Weather History & Observations

Time (EST) Temp. Windchill Dew Point Humidity Pressure Visibility Wind Dir Wind Speed Gust Speed Precip Events Conditions
12:53 AM 33.1 °F 23.4 °F 12.0 °F 42% 30.22 in 10.0 mi NNW 13.8 mph 24.2 mph N/A   Clear
1:53 AM 30.9 °F 22.8 °F 12.0 °F 46% 30.24 in 10.0 mi NNW 9.2 mph 16.1 mph N/A   Clear
2:53 AM 30.9 °F 22.8 °F 12.9 °F 47% 30.25 in 10.0 mi NNW 9.2 mph - N/A   Clear
3:53 AM 30.0 °F 22.4 °F 12.9 °F 49% 30.26 in 10.0 mi NW 8.1 mph - N/A   Clear
4:53 AM 28.9 °F 19.8 °F 14.0 °F 54% 30.28 in 10.0 mi NNW 10.4 mph 16.1 mph N/A   Clear
5:53 AM 28.9 °F 21.1 °F 14.0 °F 54% 30.30 in 10.0 mi North 8.1 mph - N/A   Clear
6:53 AM 28.0 °F 24.2 °F 14.0 °F 56% 30.33 in 10.0 mi NNW 3.5 mph - N/A   Clear
7:53 AM 28.9 °F 21.1 °F 14.0 °F 54% 30.35 in 10.0 mi North 8.1 mph - N/A   Clear
8:53 AM 30.9 °F 24.3 °F 15.1 °F 52% 30.36 in 10.0 mi NNW 6.9 mph - N/A   Clear
9:53 AM 32.0 °F 25.6 °F 15.1 °F 50% 30.35 in 10.0 mi NNW 6.9 mph - N/A   Clear
10:53 AM 35.1 °F 29.3 °F 16.0 °F 46% 30.35 in 10.0 mi NNE 6.9 mph 17.3 mph N/A   Clear
11:53 AM 37.0 °F 28.9 °F 15.1 °F 41% 30.32 in 10.0 mi NNW 12.7 mph 16.1 mph N/A   Clear
12:53 PM 39.0 °F 35.7 °F 15.1 °F 38% 30.30 in 10.0 mi North 4.6 mph - N/A   Clear
1:53 PM 39.9 °F 37.8 °F 16.0 °F 38% 30.29 in 10.0 mi Variable 3.5 mph - N/A   Clear
2:53 PM 39.9 °F 36.7 °F 15.1 °F 36% 30.28 in 10.0 mi NE 4.6 mph - N/A   Clear
3:53 PM 37.0 °F - 15.1 °F 41% 30.28 in 10.0 mi Calm Calm - N/A   Clear
4:53 PM 35.1 °F - 15.1 °F 44% 30.28 in 10.0 mi Calm Calm - N/A   Clear
5:53 PM 33.1 °F - 18.0 °F 54% 30.30 in 10.0 mi Calm Calm - N/A   Clear
6:53 PM 30.0 °F - 18.0 °F 61% 30.30 in 10.0 mi Calm Calm - N/A   Clear
7:53 PM 28.0 °F - 19.9 °F 72% 30.30 in 10.0 mi Calm Calm - N/A   Clear
8:53 PM 28.9 °F - 21.0 °F 72% 30.31 in 10.0 mi Calm Calm - N/A   Clear
9:53 PM 25.0 °F - 19.9 °F 81% 30.31 in 10.0 mi Calm Calm - N/A   Clear
10:53 PM 26.1 °F - 19.9 °F 78% 30.31 in 10.0 mi Calm Calm - N/A   Clear
11:53 PM 25.0 °F - 19.9 °F 81% 30.30 in 10.0 mi Calm Calm - N/A   Clear